London, United Kingdom

1:49 PM BST on March 30, 2017 (GMT +0100)
Heathrow Airport

Weather History for EGLL - January, 2014

Change the Weather History Date:

Friday, January 17, 2014

  Actual Average Record
Temperature  
Mean Temperature 44 °F -  
Max Temperature 48 °F 46 °F 55 °F (2008)
Min Temperature 41 °F 35 °F 24 °F (2013)
Degree Days  
Heating Degree Days 20    
Moisture  
Dew Point 42 °F    
Average Humidity 86    
Maximum Humidity 93    
Minimum Humidity 68    
Precipitation  
Precipitation 0.16 in - - ()
Sea Level Pressure  
Sea Level Pressure 29.26 in    
Wind  
Wind Speed 11 mph ()    
Max Wind Speed 18 mph    
Max Gust Speed 29 mph    
Visibility 7.9 miles    
Events Rain    
Averages and records for this station are not official NWS values.
T = Trace of Precipitation, MM = Missing Value Source: Averaged Metar Reports

Daily Weather History Graph

Daily Weather History Graph

Search for Another Location

Airport or City:

Trip Planner

Search our weather history database for the weather conditions in past years. The results will help you decide how hot, cold, wet, or windy it might be!

Date:

Astronomy

Jan. 17, 2014 Rise Set
Actual Time 7:58 AM GMT 4:25 PM GMT
Civil Twilight 7:20 AM GMT 5:03 PM GMT
Nautical Twilight 6:39 AM GMT 5:45 PM GMT
Astronomical Twilight 5:59 AM GMT 6:25 PM GMT
Moon 6:14 PM GMT (1/17) 8:04 AM GMT (1/17)
Length of Visible Light 9h 42m
Length of Day
8h 26m
Full, 99% of the Moon is Illuminated
Jan 17
Full
Jan 24
Last Quarter
Jan 30
New
Feb 6
First Quarter
Feb 14
Full

Hourly Weather History & Observations

Time (GMT) Temp. Windchill Dew Point Humidity Pressure Visibility Wind Dir Wind Speed Gust Speed Precip Events Conditions
12:00 AM 45 °F - 41 °F 82% 29.16 in 22 mi South 11.5 mph - - Rain Rain
12:20 AM 44.6 °F 39.7 °F 41.0 °F 87% 29.15 in 6.2 mi South 9.2 mph - N/A   Scattered Clouds
12:50 AM 44.6 °F 38.1 °F 42.8 °F 93% 29.15 in 6.2 mi South 13.8 mph - N/A Rain Light Rain Showers
1:00 AM 45 °F - 42 °F 86% 29.16 in 13 mi South 12.7 mph - - Rain Rain Showers
1:20 AM 44.6 °F 38.4 °F 42.8 °F 93% 29.15 in 6.2 mi SSW 12.7 mph - N/A   Scattered Clouds
1:50 AM 46.4 °F 40.1 °F 41.0 °F 81% 29.15 in 6.2 mi SSW 15.0 mph - N/A   Overcast
2:00 AM 45 °F - 42 °F 84% 29.17 in 7 mi South 13.8 mph - - Rain Light Rain Showers
2:20 AM 44.6 °F 38.8 °F 42.8 °F 93% 29.18 in 6.2 mi SSW 11.5 mph - N/A   Partly Cloudy
2:50 AM 46.4 °F 40.4 °F 42.8 °F 87% 29.18 in 6.2 mi South 13.8 mph - N/A Rain Rain Showers
3:00 AM 46 °F - 43 °F 84% 29.19 in 4 mi South 12.7 mph - - Rain Rain Showers
3:20 AM 44.6 °F 38.1 °F 41.0 °F 87% 29.18 in 6.2 mi South 13.8 mph - N/A   Scattered Clouds
3:50 AM 44.6 °F 39.2 °F 41.0 °F 87% 29.18 in 6.2 mi South 10.4 mph - N/A Rain Light Rain Showers
4:00 AM 44 °F - 42 °F 90% 29.19 in 13 mi South 11.5 mph - - Rain Light Rain Showers
4:20 AM 44.6 °F 37.2 °F 41.0 °F 87% 29.18 in 5.6 mi SSW 17.3 mph - N/A Rain Rain Showers
4:50 AM 44.6 °F 37.2 °F 41.0 °F 87% 29.18 in 6.2 mi SSW 17.3 mph 28.8 mph N/A Rain Rain Showers
5:00 AM 45 °F - 42 °F 83% 29.19 in 6 mi SSW 18.4 mph - - Rain Rain
5:20 AM 44.6 °F 38.4 °F 41.0 °F 87% 29.18 in 6.2 mi SSW 12.7 mph 24.2 mph N/A   Scattered Clouds
5:50 AM 44.6 °F 38.1 °F 41.0 °F 87% 29.18 in 6.2 mi SSW 13.8 mph - N/A   Partly Cloudy
6:00 AM 45 °F - 41 °F 79% 29.19 in 25 mi South 12.7 mph - - Rain Rain
6:20 AM 44.6 °F 37.8 °F 41.0 °F 87% 29.18 in 6.2 mi SSW 15.0 mph - N/A Rain Light Rain Showers
6:50 AM 44.6 °F 37.8 °F 41.0 °F 87% 29.21 in 6.2 mi South 15.0 mph 26.5 mph N/A Rain Light Rain Showers
7:00 AM 44 °F - 41 °F 84% 29.20 in 25 mi South 15.0 mph - - Rain Light Rain
7:20 AM 44.6 °F 38.4 °F 41.0 °F 87% 29.21 in 6.2 mi SSW 12.7 mph - N/A   Partly Cloudy
7:50 AM 44.6 °F 39.2 °F 41.0 °F 87% 29.21 in 6.2 mi SSW 10.4 mph - N/A   Partly Cloudy
8:00 AM 44 °F - 40 °F 82% 29.22 in 22 mi SSW 10.4 mph - - Rain Rain
8:20 AM 44.6 °F 38.1 °F 41.0 °F 87% 29.24 in 6.2 mi SSW 13.8 mph - N/A Rain Light Rain Showers
8:50 AM 44.6 °F 38.4 °F 41.0 °F 87% 29.24 in 6.2 mi South 12.7 mph - N/A   Scattered Clouds
9:00 AM 44 °F - 41 °F 84% 29.24 in 22 mi South 12.7 mph - - Rain Rain
9:20 AM 44.6 °F 38.8 °F 41.0 °F 87% 29.24 in 6.2 mi South 11.5 mph - N/A   Scattered Clouds
9:50 AM 44.6 °F 37.8 °F 41.0 °F 87% 29.24 in 6.2 mi South 15.0 mph 26.5 mph N/A   Scattered Clouds
10:00 AM 45 °F - 41 °F 80% 29.25 in 22 mi South 13.8 mph - -   Partly Cloudy
10:20 AM 46.4 °F 40.7 °F 41.0 °F 81% 29.24 in 6.2 mi South 12.7 mph - N/A Rain Light Rain Showers
10:50 AM 46.4 °F 41.1 °F 42.8 °F 87% 29.24 in 6.2 mi SW 11.5 mph - N/A Rain Light Rain Showers
11:00 AM 46 °F - 42 °F 80% 29.26 in 9 mi SSW 11.5 mph - - Rain Light Rain Showers
11:20 AM 46.4 °F 39.8 °F 42.8 °F 87% 29.27 in 5.6 mi SSW 16.1 mph - N/A Rain Rain Showers
11:50 AM 44.6 °F 38.8 °F 42.8 °F 93% 29.27 in 6.2 mi South 11.5 mph - N/A Rain Rain Showers
12:00 PM 46 °F - 43 °F 84% 29.26 in 3 mi South 11.5 mph - - Rain Rain
12:20 PM 46.4 °F 40.7 °F 42.8 °F 87% 29.24 in 6.2 mi South 12.7 mph - N/A   Scattered Clouds
12:50 PM 48.2 °F - 42.8 °F 82% 29.24 in 6.2 mi SSW 13.8 mph - N/A   Scattered Clouds
1:00 PM 48 °F - 44 °F 79% 29.25 in 18 mi South 13.8 mph - - Rain Rain
1:20 PM 48.2 °F - 42.8 °F 82% 29.24 in 6.2 mi SSW 13.8 mph - N/A Rain Light Rain Showers
1:50 PM 48.2 °F - 41.0 °F 76% 29.24 in 6.2 mi SSW 16.1 mph - N/A   Scattered Clouds
2:00 PM 48 °F - 42 °F 71% 29.26 in 22 mi South 15.0 mph - - Rain Rain
2:20 PM 48.2 °F - 42.8 °F 82% 29.27 in 6.2 mi SSW 13.8 mph - N/A   Scattered Clouds
2:50 PM 48.2 °F - 41.0 °F 76% 29.27 in 6.2 mi SSW 11.5 mph - N/A   Partly Cloudy
3:00 PM 48 °F - 41 °F 68% 29.28 in 22 mi SSW 12.7 mph - -  
3:20 PM 46.4 °F 41.1 °F 41.0 °F 81% 29.27 in 6.2 mi SSW 11.5 mph - N/A   Partly Cloudy
3:50 PM 46.4 °F 41.5 °F 41.0 °F 81% 29.27 in 6.2 mi South 10.4 mph - N/A   Partly Cloudy
4:00 PM 47 °F - 42 °F 76% 29.29 in 19 mi South 10.4 mph - -   Partly Cloudy
4:20 PM 44.6 °F 39.2 °F 42.8 °F 93% 29.30 in 6.2 mi SSW 10.4 mph - N/A   Partly Cloudy
4:50 PM 44.6 °F 39.7 °F 42.8 °F 93% 29.30 in 6.2 mi SSW 9.2 mph - N/A   Partly Cloudy
5:00 PM 46 °F - 43 °F 85% 29.30 in 16 mi South 8.1 mph - -  
5:20 PM 44.6 °F 39.2 °F 42.8 °F 93% 29.30 in 6.2 mi South 10.4 mph - N/A   Partly Cloudy
5:50 PM 44.6 °F 39.2 °F 42.8 °F 93% 29.30 in - South 10.4 mph - N/A   Clear
6:00 PM 46 °F - 43 °F 85% 29.32 in 16 mi South 9.2 mph - -  
6:20 PM 44.6 °F 39.7 °F 42.8 °F 93% 29.33 in - South 9.2 mph - N/A   Clear
6:50 PM 44.6 °F 40.2 °F 42.8 °F 93% 29.33 in - South 8.1 mph - N/A   Clear
7:00 PM 45 °F - 43 °F 88% 29.34 in 16 mi South 8.1 mph - -  
7:20 PM 44.6 °F 39.2 °F 42.8 °F 93% 29.33 in - SSW 10.4 mph - N/A   Clear
7:50 PM 44.6 °F 40.2 °F 41.0 °F 87% 29.36 in - South 8.1 mph - N/A   Clear
8:00 PM 45 °F - 42 °F 85% 29.35 in 14 mi South 8.1 mph - -  
8:20 PM 42.8 °F 38.6 °F 41.0 °F 93% 29.36 in - SSE 6.9 mph - N/A   Clear
8:50 PM 42.8 °F 38.6 °F 39.2 °F 87% 29.36 in 6.2 mi South 6.9 mph - N/A   Partly Cloudy
9:00 PM 44 °F - 42 °F 88% 29.37 in 16 mi South 8.1 mph - -  
9:20 PM 42.8 °F 38.6 °F 41.0 °F 93% 29.36 in - South 6.9 mph - N/A   Clear
9:50 PM 42.8 °F 38.0 °F 41.0 °F 93% 29.36 in - South 8.1 mph - N/A   Clear
10:00 PM 45 °F - 43 °F 89% 29.37 in 15 mi South 8.1 mph - -   Scattered Clouds
10:20 PM 41.0 °F 37.1 °F 39.2 °F 93% 29.36 in 6.2 mi South 5.8 mph - N/A   Partly Cloudy
10:50 PM 42.8 °F 39.3 °F 41.0 °F 93% 29.36 in - South 5.8 mph - N/A   Clear
11:00 PM 44 °F - 42 °F 91% 29.37 in 11 mi SSE 5.8 mph - -   Mostly Cloudy
11:20 PM 42.8 °F 38.6 °F 41.0 °F 93% 29.36 in 6.2 mi SE 6.9 mph - N/A   Partly Cloudy
11:50 PM 44.6 °F 41.4 °F 42.8 °F 93% 29.36 in 6.2 mi SE 5.8 mph - N/A Rain Light Rain